GFSWCAN_con_mucape_000.txt.gz
CAPE
48 57 69 71 79 80 73 75 76 76 63 63 56 55 47 42 29 17 0 7 1 11 0 0 0 0 0 5 3 11 9 52 24 35 67 65 7 53 22 64 72 194 234 164 100 103 102 170 256 295 150 119 78 63
81 74 73 72 76 74 79 71 59 65 70 68 66 58 54 50 27 19 7 8 3 0 0 0 0 0 0 0 0 0 0 9 60 0 27 46 303 93 97 309 108 159 37 190 211 66 69 182 207 184 155 142 132 103
117 98 76 78 72 65 69 69 63 72 63 73 63 40 46 45 25 23 5 0 0 0 0 0 0 0 0 0 0 0 0 0 55 0 16 39 113 169 237 126 66 66 201 87 13 11 27 25 109 149 169 186 194 140
84 96 77 71 66 55 58 57 54 61 64 59 47 37 33 39 24 19 0 0 0 0 0 0 0 0 0 0 0 0 0 0 24 28 22 65 24 29 45 87 168 264 396 261 173 85 21 10 40 68 41 166 200 68
56 57 81 58 40 46 49 51 49 51 44 23 16 0 8 45 47 12 0 0 8 1 0 0 0 0 0 0 0 0 0 0 0 0 26 44 43 8 56 76 75 151 545 339 175 84 3 18 135 162 96 150 54 36
43 40 72 52 55 56 49 49 42 36 57 46 33 36 0 50 53 2 26 16 9 3 0 0 0 0 0 0 0 0 0 0 0 0 0 0 27 27 42 122 175 128 179 162 90 71 55 76 72 45 17 0 0 0
46 50 54 60 65 56 58 52 47 40 61 33 27 34 17 50 7 0 1 10 2 4 0 0 0 0 0 0 0 0 0 0 0 0 0 0 9 30 22 14 3 0 4 27 53 67 64 36 30 20 39 7 0 3
56 63 58 59 58 47 70 56 40 43 27 36 43 49 51 39 5 0 7 3 0 0 0 0 21 0 0 0 0 0 0 0 0 0 0 0 0 0 14 0 0 0 0 3 6 2 1 0 1 0 0 0 0 0
65 60 49 46 49 53 57 46 21 26 17 21 30 45 0 0 1 22 28 1 0 0 0 4 31 0 0 10 3 0 0 0 0 0 0 0 0 0 0 0 0 0 0 0 0 0 0 0 0 0 0 0 0 0
33 36 40 39 54 57 53 32 7 20 21 28 0 0 0 8 52 3 0 0 0 0 0 51 36 0 0 0 0 4 14 2 0 0 5 5 6 0 0 0 0 0 0 0 0 0 0 0 0 0 0 0 0 0
29 29 29 53 66 63 56 52 21 26 25 0 0 3 15 21 0 1 2 3 0 1 0 50 24 0 0 0 0 0 21 15 0 6 0 50 27 0 0 0 0 0 0 0 0 0 0 0 0 0 0 0 0 0
25 21 46 62 89 47 117 64 36 3 0 0 1 0 0 0 1 1 0 0 9 11 3 50 12 21 6 8 0 3 38 28 0 21 34 68 47 10 4 1 0 0 0 0 0 0 0 0 0 0 0 0 0 1
28 22 47 50 56 97 75 45 35 38 0 0 0 0 0 1 1 0 0 12 18 22 3 3 7 0 17 16 1 0 11 12 23 5 63 49 64 46 33 25 9 0 0 0 0 0 0 0 0 0 0 0 0 10
22 46 49 48 49 48 49 26 13 0 0 0 0 0 0 1 4 3 2 11 19 22 41 6 31 7 1 0 0 0 0 0 0 9 32 7 7 2 0 1 0 0 0 0 0 0 0 0 0 0 0 0 0 0
53 47 55 56 58 58 26 2 0 0 0 0 0 0 1 1 4 5 8 1 35 10 19 28 4 0 0 0 0 0 0 0 9 47 16 46 0 0 0 0 0 0 0 0 0 0 0 0 0 0 0 0 0 0
49 24 22 31 36 18 4 0 0 0 0 0 2 1 0 4 3 6 1 0 0 0 1 3 5 4 8 2 0 0 14 17 11 11 12 6 0 2 0 0 0 0 0 0 0 0 0 0 0 0 0 5 0 0
23 0 40 29 8 0 0 0 5 0 0 4 0 1 0 1 4 0 2 13 3 0 0 3 6 2 2 0 0 10 5 3 5 1 0 0 0 7 0 0 0 0 0 0 0 0 0 0 0 0 0 3 0 0
0 16 27 1 0 0 0 0 1 1 0 9 4 13 10 8 2 13 2 0 0 0 0 0 0 0 2 8 14 7 6 9 0 0 0 0 2 2 0 0 0 0 2 7 4 0 7 2 0 0 7 20 12 12
0 0 0 0 0 0 1 0 0 0 4 6 4 2 3 2 7 6 19 1 0 0 0 0 0 0 1 8 1 0 0 0 0 0 0 0 0 0 0 0 2 0 8 16 18 0 0 2 10 6 6 12 20 6
0 0 0 0 0 1 11 0 1 2 7 10 9 20 7 4 1 3 8 4 0 0 0 0 2 7 10 1 0 0 0 0 0 0 0 0 0 6 1 0 2 17 15 11 7 0 2 6 1 10 11 14 17 5
0 0 0 0 0 0 2 4 5 0 0 0 0 19 20 10 12 15 3 5 0 0 0 1 5 0 2 0 0 0 0 0 0 0 0 0 0 5 11 21 17 18 21 19 14 15 3 0 0 0 0 0 0 13
3 0 0 2 0 0 0 1 0 1 0 0 0 0 6 7 6 0 0 9 0 1 0 0 0 0 0 0 0 0 3 27 15 0 9 31 52 34 28 29 28 19 16 21 10 8 4 0 0 0 0 0 0 0
0 0 0 0 0 0 0 0 4 0 1 0 2 0 0 1 0 0 0 0 0 0 0 0 0 0 0 0 6 18 26 36 24 25 35 51 83 78 74 58 39 24 9 0 5 3 1 0 0 0 0 0 0 0
0 0 0 0 0 0 0 0 0 0 0 0 0 0 0 0 0 0 1 10 12 6 5 13 20 43 22 23 11 29 48 51 68 80 80 75 62 50 0 2 1 0 0 2 2 0 0 0 0 0 0 0 0 0
0 0 2 0 0 0 0 0 0 0 0 0 0 0 0 0 0 0 0 0 1 5 23 34 26 33 40 47 48 60 82 111 110 94 18 15 0 1 4 0 0 0 0 0 0 0 0 0 0 0 0 0 0 0
0 5 14 4 5 8 0 0 0 0 0 0 1 0 0 0 7 19 27 18 12 8 3 4 17 17 36 46 46 25 3 3 9 10 11 6 0 0 0 0 0 0 0 0 0 0 0 0 0 0 0 0 0 0
10 45 30 41 40 25 29 13 6 30 22 22 14 1 2 3 14 17 18 18 27 57 57 28 23 41 5 20 6 1 0 0 0 0 0 0 0 0 0 0 0 0 0 0 0 0 0 0 0 0 0 0 0 0
42 217 123 73 56 88 45 14 5 3 2 13 21 4 8 2 14 22 24 38 18 8 0 14 14 6 2 1 0 0 0 0 0 0 0 0 0 0 0 0 0 0 0 0 0 0 0 0 0 0 0 0 0 0
180 74 76 36 30 42 3 0 0 0 1 0 0 1 0 0 9 22 28 0 0 0 0 0 0 0 0 0 0 0 0 0 0 0 0 0 0 0 0 0 0 0 0 0 0 0 0 0 0 0 0 0 0 0
7 37 133 70 23 16 11 11 0 0 10 2 2 3 0 3 6 3 0 0 0 0 0 0 0 0 0 0 0 0 0 0 0 0 0 0 0 0 0 0 0 0 0 0 0 0 0 0 0 0 0 0 0 0
66 48 122 52 21 43 36 6 8 0 0 0 0 0 0 0 4 0 0 0 0 0 0 0 0 0 0 0 0 0 0 0 0 0 0 0 0 0 0 0 0 0 0 0 0 0 0 0 0 0 0 0 0 0
84 48 81 106 68 110 104 53 5 16 36 8 7 7 12 18 25 12 1 0 0 0 0 0 0 0 0 0 0 0 0 0 0 0 0 0 0 0 0 0 0 0 0 0 0 0 0 0 0 0 0 0 0 0
250 81 56 131 83 63 69 25 62 73 30 32 17 10 32 34 18 11 0 1 0 0 0 0 0 0 0 0 0 0 0 0 0 0 0 0 0 0 0 0 0 0 0 0 0 0 0 0 0 0 0 0 0 0

GFSWCAN_con_mucape_006.txt.gz
CAPE
60 21 22 70 95 104 140 123 104 81 84 68 74 78 87 68 58 37 0 8 5 0 0 0 0 0 0 0 0 0 11 74 55 67 45 30 3 16 56 0 7 16 81 60 55 58 154 136 152 130 25 24 39 45
62 75 69 59 71 110 123 116 101 91 71 48 76 73 76 67 65 48 0 7 41 0 0 0 0 0 0 0 0 1 7 57 37 48 41 38 184 46 219 126 7 84 160 121 25 35 64 213 164 109 78 37 46 81
71 81 111 96 87 86 88 81 94 98 66 49 48 95 62 63 66 43 11 8 0 8 0 0 0 0 0 0 0 0 12 35 28 19 30 29 106 49 109 189 170 141 49 14 40 52 160 189 171 146 138 104 82 89
56 63 46 43 67 67 68 85 65 67 37 50 56 67 70 70 65 56 24 2 14 0 0 0 0 0 0 0 0 0 16 12 2 0 24 6 38 19 41 49 136 64 53 3 8 29 57 119 106 84 97 147 101 98
51 59 81 10 70 48 45 74 84 60 36 40 61 44 49 59 75 24 15 1 0 0 0 0 0 0 0 0 0 0 12 27 6 4 1 4 3 30 15 115 221 161 58 0 1 3 12 1 18 58 60 26 31 2
78 67 93 50 67 53 75 62 58 44 41 35 60 69 52 57 28 0 2 14 0 0 40 0 1 0 0 0 0 0 0 36 49 25 2 16 5 1 69 97 33 218 59 107 0 1 14 13 26 13 0 0 0 0
96 109 80 70 76 69 75 62 47 34 30 46 64 47 49 56 4 1 5 0 7 15 2 0 2 9 0 0 0 0 0 0 13 0 7 1 16 4 38 36 85 126 75 43 27 30 38 57 46 13 1 0 0 0
84 110 49 51 35 32 54 44 28 27 38 23 38 37 54 57 12 0 5 11 6 3 0 2 18 6 0 0 0 0 0 0 0 0 0 0 13 53 52 46 114 48 50 38 43 14 1 8 13 15 1 0 0 1
89 54 47 35 38 52 38 31 20 16 3 10 16 5 0 0 2 24 26 20 11 0 0 8 36 4 5 0 0 0 0 0 0 4 1 0 0 51 4 20 45 34 2 14 37 33 12 29 6 5 10 0 0 0
60 44 43 44 46 45 37 22 18 18 13 0 0 0 0 26 19 21 0 0 0 0 0 31 8 71 13 36 28 0 0 0 24 22 15 8 3 33 31 16 20 10 15 46 38 7 0 0 0 0 0 0 0 0
30 40 61 68 40 38 34 22 22 19 0 0 0 1 6 24 3 0 2 0 1 0 19 22 30 47 38 35 26 0 1 0 33 32 45 80 31 16 3 13 9 14 3 0 0 0 0 0 0 0 0 0 0 0
56 65 68 45 54 52 48 57 38 7 0 2 1 0 0 0 0 0 0 3 0 0 23 50 51 41 39 39 16 24 20 8 29 31 43 97 33 0 0 0 0 0 0 0 0 0 0 0 0 0 0 0 0 0
79 66 56 62 56 56 50 25 19 0 0 0 0 0 0 0 12 3 21 23 10 33 26 29 20 0 47 31 28 36 17 29 40 70 58 37 8 23 14 0 0 0 0 0 0 0 0 0 0 0 0 0 0 0
53 58 55 41 32 19 0 0 0 0 2 23 6 0 0 14 19 32 32 36 25 53 16 33 45 29 36 38 46 3 8 43 23 55 0 15 19 25 13 1 0 5 0 0 0 0 0 0 0 0 0 0 0 0
31 30 21 4 0 0 0 0 1 0 3 0 0 0 1 21 23 17 36 33 19 30 19 20 40 39 39 0 11 18 28 39 95 103 34 29 8 9 20 9 0 0 0 0 0 0 0 0 0 0 0 0 0 0
0 0 0 2 0 0 0 0 0 2 7 13 12 7 9 0 5 22 31 11 10 12 11 10 21 29 34 25 33 5 13 1 31 63 39 21 14 4 0 0 0 0 0 0 0 0 0 0 0 0 0 0 0 0
0 0 0 0 0 0 0 0 0 0 0 11 8 11 3 2 0 10 35 8 0 3 21 7 0 0 3 30 27 41 36 37 19 22 12 1 0 0 0 0 0 0 0 0 0 0 0 0 0 0 0 1 4 15
0 0 0 0 0 0 0 0 0 0 0 2 1 1 4 0 0 0 6 12 0 3 0 0 2 1 4 15 20 11 2 8 0 0 5 0 0 0 0 0 0 10 9 4 4 0 0 0 0 0 0 0 0 5
0 0 0 0 0 0 0 0 0 0 0 1 3 3 0 0 0 0 0 0 0 0 0 0 0 4 1 1 0 0 0 0 0 0 1 7 9 4 6 0 1 13 11 9 9 5 0 0 0 0 2 0 0 0
0 0 0 0 0 0 0 0 0 0 0 0 0 0 0 0 0 0 0 0 0 0 0 0 1 0 0 0 0 0 0 0 0 0 7 23 21 22 12 5 4 5 9 5 5 4 1 0 0 0 0 0 0 0
0 0 0 0 0 0 0 0 0 0 0 0 0 0 0 0 0 0 0 0 0 0 1 8 1 0 0 0 0 0 3 0 0 0 6 9 4 8 9 5 8 14 11 3 2 0 0 0 0 0 0 0 0 0
0 0 0 0 0 0 0 0 0 0 0 0 0 0 0 0 0 0 0 0 0 0 0 0 0 0 0 1 5 16 15 12 5 7 13 8 0 0 0 2 2 0 0 0 0 0 0 0 0 0 0 0 1 0
0 0 0 0 0 0 0 0 0 0 0 0 0 0 0 0 0 0 0 2 0 16 23 18 21 25 24 25 31 30 30 42 41 33 31 29 2 0 0 0 2 0 0 0 0 0 0 0 0 0 0 2 3 3
0 0 0 0 0 0 0 0 0 0 0 0 0 0 0 0 1 2 3 2 2 13 7 22 17 15 17 29 33 19 17 20 10 8 26 26 11 10 4 0 0 0 0 0 0 0 0 0 0 0 0 0 0 0
0 0 0 0 0 0 0 0 0 0 0 0 0 0 0 5 4 1 7 9 14 16 25 24 14 7 12 9 3 4 7 5 0 0 0 0 1 1 0 0 0 0 0 0 0 0 0 0 0 0 0 0 0 0
21 21 17 7 1 0 0 0 0 0 0 0 0 0 0 1 6 3 13 20 33 19 26 22 15 3 0 0 0 0 0 0 0 0 0 0 0 0 0 0 0 0 0 0 0 0 0 0 0 0 0 0 0 0
19 31 17 7 4 0 2 0 4 0 0 7 12 1 0 9 19 29 24 22 23 24 22 7 0 0 0 0 0 0 0 0 0 0 0 0 0 0 0 0 0 0 0 0 0 0 0 0 0 0 0 0 0 0
15 25 29 13 0 0 1 1 0 0 0 10 10 6 0 12 27 17 17 11 24 27 12 0 2 1 0 0 0 0 0 0 0 0 0 0 0 0 0 0 0 0 0 0 0 0 0 0 0 0 0 0 0 8
27 31 20 4 7 3 0 0 0 0 0 0 0 1 4 6 11 18 11 8 5 6 4 0 0 0 0 0 0 0 0 0 0 0 0 0 0 0 0 0 0 0 0 0 0 0 0 0 0 0 1 0 0 9
14 15 15 16 10 17 16 3 0 0 0 1 0 0 0 1 6 9 13 9 0 0 0 0 1 0 0 0 0 0 0 0 0 0 0 0 0 0 0 0 0 0 0 0 0 0 0 0 0 0 0 0 0 0
9 4 8 25 6 7 25 43 1 0 0 0 1 1 0 0 0 0 0 0 1 2 0 0 0 0 0 0 0 0 0 0 0 0 0 0 0 0 0 0 0 0 0 0 0 0 0 0 0 0 0 0 0 0
26 5 2 12 10 15 68 61 7 4 4 9 22 0 0 0 0 0 0 0 1 0 0 0 0 0 0 0 0 0 0 0 0 0 0 0 0 0 0 0 0 0 0 0 0 0 0 0 0 0 0 0 0 0
50 73 32 34 41 126 122 19 11 13 5 8 13 0 1 1 1 0 44 0 0 0 0 0 2 2 0 0 0 0 0 0 0 0 0 0 0 0 0 0 0 0 0 0 0 0 0 0 0 0 0 0 0 0

GFSWCAN_con_mucape_009.txt.gz
CAPE
48 46 48 58 61 52 57 100 129 120 106 91 79 59 70 64 76 57 68 18 29 0 0 0 0 0 0 0 0 0 0 3 53 217 191 115 45 52 243 371 302 223 253 216 299 238 113 2 84 211 136 26 45 64
52 48 54 57 77 93 99 104 109 111 112 119 103 43 38 42 44 81 60 6 39 0 0 0 0 0 0 0 0 0 0 13 21 24 30 51 277 90 294 256 192 184 151 217 137 14 0 2 153 108 134 121 117 209
69 83 64 64 62 28 61 99 93 115 104 102 53 48 44 37 28 65 31 0 0 0 0 0 0 0 0 0 0 0 2 25 73 57 44 72 140 95 527 495 126 258 83 35 14 0 5 79 126 140 143 149 114 114
86 91 74 65 74 26 60 76 80 110 57 27 42 60 26 21 45 60 98 21 7 1 0 0 0 0 0 0 0 0 16 36 63 73 88 56 65 40 110 253 457 48 13 17 37 4 33 28 47 41 93 96 85 81
139 125 91 93 98 49 70 60 103 57 25 24 30 51 35 44 18 105 23 14 10 0 0 0 0 0 1 2 0 0 14 22 29 43 17 13 12 28 25 114 85 101 46 13 15 13 34 61 37 23 32 59 47 66
219 161 155 131 74 75 82 57 56 30 28 33 30 49 44 48 15 2 0 32 6 47 0 6 21 21 14 5 0 0 30 36 17 0 0 5 0 5 195 30 35 66 35 26 21 43 9 14 36 18 34 0 0 0
105 148 103 40 53 43 47 54 38 22 20 26 36 32 31 48 12 1 0 0 0 4 15 43 54 35 19 0 0 0 0 20 0 10 6 5 0 18 58 50 35 69 37 24 2 32 33 63 29 7 2 0 0 0
90 64 62 45 37 48 47 43 29 20 16 5 10 17 23 30 22 3 0 2 6 0 28 27 29 33 7 4 0 0 0 1 0 15 31 16 25 46 44 17 2 15 29 19 13 7 12 50 48 29 3 0 0 0
46 33 39 37 43 40 38 25 23 12 0 0 5 1 0 0 5 21 5 9 7 1 36 28 11 56 17 5 0 0 0 1 0 57 18 1 1 35 17 11 28 9 12 28 13 1 1 15 4 12 11 15 4 0
21 21 45 79 73 66 58 30 23 25 0 0 0 0 0 9 6 9 33 0 0 27 29 18 22 9 10 17 11 0 3 22 122 27 29 20 3 0 9 1 14 35 5 2 0 0 0 0 10 1 1 27 18 4
72 81 65 46 59 61 62 43 33 6 0 0 0 6 0 0 0 1 17 0 0 16 5 7 20 19 29 43 17 0 6 15 117 63 81 59 0 17 0 0 0 8 2 1 0 0 1 0 0 0 0 0 0 0
50 57 64 53 51 35 29 29 17 0 0 0 0 0 0 0 0 0 0 0 0 4 7 10 11 18 17 6 4 1 2 1 52 46 111 52 68 34 41 7 6 2 14 17 3 0 0 0 0 0 0 0 0 0
38 36 32 29 5 3 4 0 0 0 0 0 0 1 0 1 19 26 165 93 74 32 17 15 3 0 34 7 6 35 37 56 22 148 31 106 90 20 19 15 9 3 0 0 0 0 0 0 0 0 0 0 0 0
9 2 0 0 0 0 0 0 0 0 2 0 23 9 0 13 21 33 41 15 14 24 14 19 1 8 7 27 41 74 33 58 80 0 7 66 28 29 28 15 11 4 0 0 0 0 0 0 0 0 0 0 0 0
0 0 0 0 0 0 0 0 0 1 9 0 0 0 4 2 27 40 37 16 7 4 5 19 23 15 11 69 81 48 65 67 72 41 0 88 24 13 10 12 9 7 4 0 0 0 0 0 0 0 0 0 0 0
0 0 0 0 0 0 0 0 5 6 5 1 0 0 0 17 19 20 4 2 3 6 20 0 2 5 0 103 90 60 49 16 63 34 13 15 14 11 13 4 4 0 0 0 0 0 0 2 0 0 0 0 0 2
0 0 0 0 0 0 0 0 0 1 0 2 13 5 0 0 0 4 0 0 0 0 10 18 24 0 3 62 95 91 0 0 2 37 9 0 3 0 0 0 0 0 0 0 0 0 8 6 0 4 16 11 2 9
0 0 0 0 0 0 0 0 0 0 0 0 0 0 0 0 0 0 2 0 0 0 3 8 5 38 58 55 7 0 3 24 14 7 9 17 1 0 1 0 0 4 8 8 9 11 20 42 44 11 18 16 13 19
0 0 0 0 0 0 0 0 0 0 0 0 0 0 0 0 0 0 0 0 0 0 0 0 4 0 1 17 21 15 12 10 8 2 6 2 2 17 22 17 15 30 11 10 17 19 14 8 6 0 0 14 19 8
0 0 0 0 0 0 0 0 0 0 0 0 0 0 0 0 0 0 0 0 0 0 0 13 20 19 15 1 0 0 0 0 0 20 10 19 9 29 40 16 14 9 15 16 10 6 7 5 0 0 0 0 5 0
0 0 0 0 0 0 0 0 0 0 0 1 0 0 0 0 0 0 0 0 0 0 6 1 0 0 0 0 0 0 0 0 0 11 37 24 8 25 0 0 0 7 15 12 4 0 0 0 0 0 0 0 0 0
0 0 0 0 0 0 0 0 0 0 0 0 0 0 1 0 0 0 0 0 0 0 0 0 2 7 20 24 25 25 22 16 12 20 29 13 36 0 1 0 1 1 3 0 0 0 0 0 0 0 0 0 0 0
0 0 0 0 0 0 0 0 0 0 0 0 0 0 0 0 0 0 8 16 36 28 41 41 30 26 35 32 104 107 75 110 179 158 87 110 22 4 4 5 5 1 0 0 0 0 0 0 0 0 0 0 0 0
0 0 0 0 0 0 0 0 0 0 0 2 4 6 4 0 0 3 9 10 60 12 45 66 150 381 244 77 50 29 18 63 17 5 42 20 3 2 2 0 0 0 0 0 0 0 0 0 0 0 0 0 0 0
0 0 0 0 0 0 0 0 1 0 0 0 0 2 0 0 12 69 93 173 132 125 140 106 98 84 21 0 0 0 0 0 0 0 0 0 0 0 0 0 0 0 0 0 0 0 0 0 0 0 0 0 0 0
3 5 3 4 2 2 0 7 11 21 9 1 0 0 0 0 30 36 141 194 147 84 69 56 2 0 0 0 0 0 0 0 0 0 0 0 0 0 0 0 0 0 0 0 0 0 0 0 0 0 0 0 0 0
10 16 14 0 0 0 0 0 0 0 2 7 14 5 0 28 58 105 122 55 51 30 3 5 9 5 0 0 0 0 0 0 0 0 0 0 0 0 0 0 0 0 0 0 0 0 0 0 0 0 0 0 0 0
13 21 6 1 0 0 0 0 0 0 0 0 0 0 12 33 11 13 12 28 41 19 0 0 1 0 0 0 0 0 0 0 0 0 0 0 0 0 0 0 0 0 0 0 0 0 0 0 0 0 0 0 0 20
17 15 4 0 0 0 0 0 0 0 0 0 0 0 0 0 4 1 0 1 0 0 0 3 5 3 0 0 0 0 0 0 0 0 0 0 0 0 0 0 0 0 0 0 0 0 1 0 0 0 0 0 0 0
13 6 1 7 6 27 27 7 0 0 0 0 0 0 0 0 1 2 1 2 11 6 0 0 0 0 0 0 0 0 0 0 0 0 0 0 0 0 0 0 0 0 0 0 0 0 0 0 0 0 0 0 0 0
44 53 50 38 120 12 21 99 7 0 1 4 0 0 0 1 0 1 4 9 2 1 3 0 0 0 0 0 0 0 0 0 0 0 0 0 0 0 0 0 0 0 0 0 0 0 0 0 0 0 0 0 0 0
121 168 206 181 309 302 139 27 14 3 6 0 6 0 0 0 0 0 2 0 0 0 0 0 1 0 0 0 0 0 0 0 0 0 0 0 0 0 0 0 0 0 0 0 0 0 0 0 0 0 0 0 0 0
37 149 167 163 207 189 134 113 168 16 15 0 2 56 0 2 10 83 20 16 0 0 0 0 0 0 0 0 0 0 0 0 0 0 0 0 0 0 0 0 0 0 0 0 0 0 0 0 0 0 0 0 0 0

GFSWCAN_con_mucape_015.txt.gz
CAPE
61 72 87 125 169 182 169 140 129 96 175 196 149 141 166 132 127 172 286 352 151 32 4 57 72 56 17 9 0 0 45 34 100 123 74 38 21 33 63 124 147 11 85 80 243 177 193 432 469 468 845 893 969 975
55 60 49 68 81 108 115 121 115 55 160 100 150 117 159 76 53 57 40 171 59 0 5 47 72 60 28 36 41 1 7 6 43 137 180 105 154 232 144 65 142 160 77 129 377 475 666 452 555 635 732 1067 1055 1080
49 65 58 81 97 137 84 104 81 99 86 128 36 45 39 55 64 67 67 165 62 20 13 28 33 83 11 0 0 4 19 25 15 21 0 26 0 176 307 128 178 269 283 608 951 697 380 313 417 644 898 933 1191 1379
54 40 68 69 22 35 27 51 73 77 70 36 24 15 26 63 54 48 58 125 50 19 0 30 67 72 10 12 0 0 24 18 0 47 2 0 0 120 145 89 740 17 265 987 1009 517 408 218 240 352 337 435 724 968
43 54 68 56 37 33 39 55 59 34 25 29 34 30 55 35 0 18 86 57 100 1 0 10 4 143 50 1 3 0 0 6 12 59 11 0 83 73 162 141 6 15 231 526 730 508 528 57 5 1 19 10 72 173
21 31 49 52 66 63 44 47 36 21 11 1 14 25 29 40 27 68 86 14 11 105 0 1 44 219 325 5 9 14 13 26 33 63 25 34 49 18 129 53 10 15 75 248 406 268 24 0 0 0 2 0 0 6
25 37 48 62 67 63 53 33 24 15 3 0 0 1 8 22 47 89 59 12 16 49 0 14 51 326 405 200 93 126 42 21 3 0 21 56 37 17 43 38 42 85 149 107 73 0 0 0 0 3 4 1 0 0
43 60 59 55 53 42 47 48 43 21 5 0 0 0 4 10 15 5 6 7 12 15 43 27 32 354 242 254 153 113 89 35 1 0 11 11 7 10 32 17 25 109 49 68 14 0 0 0 0 7 3 5 17 0
25 33 33 32 31 29 39 35 26 8 1 0 0 0 2 5 6 203 0 0 0 5 7 4 0 95 116 63 41 50 6 5 71 1 7 3 0 0 1 1 8 91 71 61 38 10 12 17 0 4 9 2 0 0
2 0 7 8 9 14 14 9 0 0 0 0 1 3 43 87 0 15 0 1 10 21 5 1 34 172 73 76 36 47 28 0 0 0 0 13 0 0 1 1 50 89 168 134 48 23 26 4 13 0 1 0 0 0
0 0 0 0 3 9 4 1 0 0 1 21 23 37 33 0 44 42 16 12 5 7 18 72 170 194 34 86 16 69 38 0 0 9 23 0 0 0 6 2 68 77 59 65 33 1 2 0 0 0 0 0 0 30
0 0 0 0 0 0 0 0 0 0 0 0 0 0 1 43 65 5 0 17 39 47 91 205 171 124 44 48 115 0 0 0 0 4 0 0 0 0 0 0 0 3 2 9 4 0 0 0 23 23 59 19 33 48
0 0 0 0 0 0 0 0 0 0 0 0 39 38 38 97 121 0 113 73 107 221 247 312 270 152 214 130 96 189 9 50 60 69 0 0 0 9 72 70 48 64 16 0 0 46 17 23 26 25 26 50 48 40
0 0 0 0 0 0 0 0 0 0 5 9 14 27 7 69 131 276 307 286 337 217 270 172 147 130 192 126 76 34 46 83 58 0 7 66 46 19 66 85 55 49 55 46 29 27 16 4 9 34 39 25 10 55
0 0 0 0 0 0 0 0 0 8 17 11 7 0 59 68 202 117 114 137 214 251 325 216 103 174 196 146 169 149 93 41 0 0 17 34 49 46 23 24 59 48 42 40 27 23 23 22 28 28 33 52 77 153
0 0 0 0 0 0 0 0 32 26 82 105 81 44 90 85 95 101 167 236 264 319 204 117 153 122 127 92 62 0 0 0 1 8 106 204 44 119 146 131 107 94 65 30 31 27 23 38 47 41 31 19 6 42
0 1 0 0 0 0 0 1 82 35 74 26 40 61 53 52 62 146 150 171 218 341 246 203 154 100 59 46 0 0 0 0 0 0 79 225 186 237 161 162 181 110 130 133 51 62 87 57 50 46 29 12 7 0
0 0 0 0 0 0 0 1 32 33 28 38 44 59 78 82 118 158 146 133 197 341 227 108 92 95 65 0 0 13 59 92 192 403 431 356 294 291 270 194 162 156 184 184 135 253 222 135 46 48 47 22 47 25
0 0 0 0 0 0 0 0 11 36 41 39 59 58 63 101 152 145 167 158 164 112 97 72 58 53 53 62 90 107 173 375 478 502 488 338 354 305 240 224 221 181 118 32 43 57 71 68 42 44 51 63 51 34
0 0 0 0 0 9 5 1 7 16 25 33 54 52 52 61 87 135 102 79 44 39 26 11 24 60 63 114 102 148 291 540 621 485 346 112 75 38 24 7 9 25 39 38 12 1 19 23 14 4 4 5 23 20
0 0 0 0 1 2 12 12 30 12 22 44 42 44 55 163 86 172 190 188 143 169 190 328 408 454 509 757 491 551 405 281 286 469 305 156 97 44 17 19 9 5 10 8 0 0 0 0 0 0 0 0 0 0
0 0 0 0 6 5 22 22 16 16 10 21 61 80 38 32 71 14 116 139 85 186 216 223 521 912 683 400 546 347 195 241 379 191 126 163 190 46 25 7 10 14 13 1 0 0 0 0 0 0 0 0 0 0
0 0 3 2 3 0 11 26 17 14 19 22 79 26 17 27 57 41 81 127 164 268 760 448 128 58 30 11 21 0 43 33 12 20 14 24 14 5 9 8 8 4 5 3 2 2 0 0 0 0 0 0 0 4
0 0 1 0 24 33 50 127 70 80 96 59 96 125 159 248 341 89 53 116 272 370 113 301 57 43 38 21 1 0 0 0 0 6 0 0 3 14 8 7 11 10 5 3 1 0 0 0 0 0 0 0 1 1
0 0 139 60 119 204 153 158 162 164 145 161 141 158 182 167 110 67 57 187 323 44 28 25 12 6 0 0 0 0 0 0 0 0 0 0 0 1 5 18 21 3 1 0 0 0 0 0 0 0 0 0 0 0
8 178 17 239 237 222 189 128 148 145 173 127 113 181 276 247 59 79 62 83 5 20 11 11 0 0 0 0 0 0 0 0 0 0 0 0 0 0 0 0 0 1 0 0 0 0 0 0 0 0 13 4 0 0
116 264 573 431 268 301 377 337 325 237 115 121 199 187 154 57 0 0 6 27 29 4 6 2 0 0 0 0 0 0 0 0 0 0 0 0 8 7 0 0 0 0 3 18 10 11 0 0 0 0 0 4 13 14
425 548 469 493 472 379 419 259 107 76 117 261 189 100 38 3 1 0 0 0 1 0 0 0 0 0 0 0 0 0 0 0 0 0 0 0 5 8 3 1 8 0 9 6 0 7 5 0 0 0 0 0 0 14
596 582 630 515 480 426 406 208 110 160 35 71 158 3 3 0 0 0 0 0 0 0 0 0 0 0 4 3 0 0 0 0 0 0 0 0 0 0 0 0 0 1 3 5 0 0 0 0 0 0 0 14 16 11
334 457 408 386 406 424 346 201 118 5 1 0 1 0 0 0 0 37 44 44 16 7 16 25 17 0 0 0 0 0 0 0 0 0 0 0 0 0 0 0 0 0 0 0 0 2 0 0 4 12 4 0 0 0
204 108 149 477 387 296 96 66 34 2 1 3 18 15 0 13 90 149 25 28 30 25 11 3 0 0 0 0 0 0 0 0 0 0 0 0 0 0 0 0 0 0 0 0 0 0 0 0 0 0 0 0 0 0
82 96 81 69 258 321 175 199 17 27 27 40 38 14 9 44 46 36 7 2 5 5 0 4 1 0 0 0 0 0 0 0 0 0 0 0 0 0 0 0 0 0 0 0 0 0 0 0 0 0 0 0 0 0
53 47 38 36 44 40 220 484 275 78 43 63 63 63 80 80 38 20 25 11 2 0 4 6 3 4 0 0 0 0 0 0 0 0 0 0 0 0 0 0 0 0 0 0 0 0 0 0 0 0 0 0 0 0

GFSWCAN_con_mucape_021.txt.gz
CAPE
8 11 25 31 54 42 69 74 66 38 44 55 69 70 48 54 112 218 44 243 105 38 5 0 0 5 10 3 4 40 5 36 33 18 3 2 0 0 0 0 0 38 0 0 14 0 0 421 226 297 381 952 973 595
2 3 13 19 45 68 84 89 87 92 94 38 27 31 33 22 35 67 25 222 104 23 11 0 0 0 0 0 7 24 29 0 0 69 126 66 1 0 55 58 0 1 2 41 78 664 575 947 941 877 1484 1464 1663 1680
0 4 16 29 43 56 55 59 62 72 69 38 40 35 42 44 55 64 82 102 102 2 0 0 0 0 0 4 4 0 0 7 0 29 0 10 1 81 12 86 103 11 85 79 297 224 151 371 463 1361 1219 1117 1293 1281
4 13 20 16 22 30 44 54 61 63 58 23 15 9 20 31 63 19 38 76 8 0 0 0 0 0 0 1 0 15 30 15 6 0 0 0 0 58 45 25 19 10 9 159 185 414 671 911 1116 855 966 822 558 857
0 0 0 0 0 16 31 28 33 46 48 35 24 14 2 8 40 22 0 0 0 0 0 0 0 11 13 0 0 1 5 3 1 0 0 0 55 0 0 0 56 0 98 158 208 3 0 289 234 563 532 431 396 697
0 0 0 0 0 0 6 11 13 19 23 20 10 9 15 8 0 0 1 31 52 38 0 0 0 0 8 54 73 0 1 0 3 80 47 0 0 0 0 0 2 0 2 20 427 46 89 112 106 117 11 10 1 386
0 0 0 0 0 0 0 0 5 9 16 16 14 14 6 18 0 0 0 0 10 0 0 0 0 25 89 199 0 0 0 0 90 60 0 0 0 0 0 0 37 14 81 61 81 71 3 0 45 10 0 0 0 0
0 0 0 0 0 0 0 0 0 0 0 0 4 3 0 0 1 0 0 0 1 0 0 0 0 31 61 102 41 34 0 62 5 0 0 0 0 0 0 0 0 23 9 19 14 17 0 0 7 38 2 4 0 0
0 0 0 0 0 0 0 0 0 0 0 0 0 0 0 0 0 0 0 0 0 0 0 0 0 0 17 7 67 43 33 6 6 0 0 0 0 0 0 24 0 0 0 0 0 13 1 0 0 0 0 1 0 0
0 0 0 0 0 0 0 0 0 0 0 0 0 0 0 1 0 0 0 0 0 0 0 0 0 0 0 27 55 6 37 0 0 0 4 1 0 0 0 0 0 0 0 0 0 0 19 25 30 9 9 1 0 5
0 0 0 0 0 0 0 0 0 0 0 2 2 0 0 0 4 1 0 0 0 0 1 0 0 7 0 0 0 0 0 0 0 0 0 0 0 0 0 0 0 3 0 0 0 28 29 14 3 3 3 8 15 8
0 0 0 0 0 0 0 0 0 0 0 0 0 0 0 29 31 0 0 0 0 0 0 9 0 0 0 0 0 0 0 0 0 0 0 0 0 0 0 0 0 5 4 0 0 3 3 4 0 0 3 13 12 9
0 0 0 0 0 0 0 0 0 0 0 2 0 3 37 27 21 2 0 0 0 28 22 12 0 0 0 0 0 0 0 0 0 0 0 0 0 0 0 37 0 0 0 0 0 0 6 25 48 18 23 39 55 50
0 0 0 0 0 0 0 0 0 0 0 2 26 1 69 61 18 30 15 28 2 21 29 56 0 7 0 0 6 0 0 0 0 0 0 0 5 56 36 53 47 36 53 71 69 63 75 67 39 45 82 57 57 58
0 0 0 0 0 0 0 0 0 16 3 84 61 6 113 66 86 49 113 61 56 55 193 182 54 6 33 36 0 0 0 0 0 1 1 0 0 42 63 88 120 109 53 64 87 79 49 72 77 53 93 74 96 98
0 0 0 0 0 0 0 0 33 57 624 235 115 84 119 75 53 11 48 12 0 22 9 0 21 0 0 0 0 0 0 0 0 0 0 0 14 7 48 11 82 148 147 5 27 52 185 171 83 38 79 78 149 173
0 0 0 0 0 0 0 0 396 94 64 50 70 166 147 24 73 112 88 3 12 1 0 0 0 0 0 0 0 0 0 0 0 0 0 0 27 78 80 97 158 123 74 27 150 75 75 10 20 136 36 75 3 88
0 0 0 0 0 0 86 15 83 61 45 111 66 156 58 181 40 93 59 88 3 1 0 3 26 0 0 0 8 6 0 14 0 1 24 44 41 108 184 174 233 93 41 23 70 29 8 18 5 5 3 13 11 4
0 0 0 0 0 0 21 13 108 101 68 54 40 91 169 173 243 109 129 68 36 7 0 23 0 0 0 0 0 40 15 9 51 70 104 178 233 178 263 286 252 173 87 10 8 0 0 0 0 3 10 0 0 0
0 0 0 0 0 0 19 113 326 82 52 96 143 99 141 164 170 45 8 12 3 0 0 0 0 62 55 55 91 69 91 123 99 63 122 89 65 95 170 75 52 47 14 4 0 0 0 0 0 0 0 0 0 0
0 0 0 0 1 1 0 3 11 24 17 37 77 131 205 28 1 0 2 45 2 21 49 102 52 13 4 0 0 0 3 210 93 15 95 87 129 124 134 68 27 3 0 0 0 0 0 0 0 0 0 0 0 0
0 0 0 42 25 0 18 148 9 148 172 169 177 102 131 52 22 13 45 3 39 131 118 182 128 7 0 0 0 0 0 0 0 0 2 3 0 2 4 2 7 0 0 0 0 0 0 0 0 0 0 0 0 0
0 0 31 83 36 1 69 277 173 128 138 112 108 49 209 184 122 113 61 130 103 165 109 128 197 130 44 11 0 0 0 0 0 0 0 0 0 0 0 0 4 0 0 0 0 0 0 0 0 0 0 0 0 0
0 0 26 184 239 44 543 297 469 418 501 287 316 136 321 547 613 176 8 47 18 11 2 14 16 6 2 16 0 0 0 0 0 0 0 0 0 0 0 0 0 0 0 0 0 0 0 0 0 0 0 0 0 0
0 0 100 165 529 469 373 152 68 212 174 466 304 254 5 18 74 75 0 0 0 25 23 19 18 30 0 0 0 0 0 0 0 0 0 0 0 0 0 0 0 0 0 0 0 0 0 0 0 0 0 0 0 0
81 490 178 459 273 235 365 215 370 206 224 251 316 444 67 83 12 1 0 0 0 11 20 28 15 20 12 2 0 0 0 0 0 0 0 0 0 0 0 0 0 0 0 0 0 0 0 0 0 0 0 0 1 0
114 2 228 8 0 39 157 376 338 145 69 125 445 184 176 12 11 0 13 41 37 43 53 27 25 23 0 0 0 0 0 0 0 0 0 0 0 0 0 0 0 0 0 0 0 0 0 0 0 0 0 0 0 0
9 70 273 208 194 287 221 64 5 0 0 12 156 0 5 10 1 4 18 41 34 63 73 75 89 0 0 0 0 0 0 0 0 0 0 0 0 0 0 0 0 0 0 0 0 0 0 0 0 0 0 0 0 0
194 324 140 234 107 92 66 0 0 0 0 0 0 0 0 0 3 23 52 97 108 92 27 2 0 0 0 0 0 0 0 0 0 0 0 0 0 0 0 0 0 0 0 0 0 0 0 0 0 0 0 0 0 0
438 386 382 324 4 14 5 0 0 0 0 0 0 0 0 2 15 33 10 2 0 0 0 0 0 0 0 0 0 0 0 0 0 0 0 0 0 0 0 0 0 0 0 0 1 0 0 0 0 0 0 0 0 0
90 165 313 267 100 112 26 0 0 0 0 0 1 0 1 7 13 8 12 6 0 0 0 0 0 0 0 0 0 0 0 0 0 0 0 0 0 0 0 0 0 0 0 0 0 0 0 0 0 0 0 0 0 0
87 16 52 48 355 258 296 164 81 42 3 14 15 2 2 25 45 39 15 0 0 0 0 0 0 0 0 0 0 0 0 0 0 0 0 0 0 0 0 0 0 0 0 0 0 0 0 0 0 0 0 0 0 0
29 16 8 1 288 636 510 489 321 178 37 30 16 28 18 6 0 8 9 0 0 0 0 0 0 0 0 0 0 0 0 0 0 0 0 0 0 0 0 0 0 0 0 0 0 0 0 0 0 0 0 0 0 0

GFSWCAN_con_mucape_024.txt.gz
CAPE
0 0 0 0 11 21 37 25 42 27 31 31 31 42 52 51 47 21 8 27 31 33 0 0 0 0 0 1 19 0 14 2 0 20 71 13 0 0 33 38 97 0 0 0 0 0 0 111 60 5 200 629 358 390
0 0 0 0 11 18 12 26 43 56 30 28 30 33 39 48 51 27 0 0 24 3 0 0 0 0 0 0 1 7 19 3 0 3 0 1 28 76 75 70 109 8 80 0 0 76 239 301 1085 1055 1212 1270 1088 1140
0 0 0 0 0 0 0 6 15 24 13 21 31 37 37 40 63 49 30 0 0 0 0 0 0 0 0 0 3 0 0 0 0 0 0 0 0 112 51 131 164 141 185 46 0 166 400 731 1010 1136 1157 1041 1183 1197
0 0 0 0 0 0 0 0 0 7 21 17 26 26 28 34 35 18 0 0 0 0 0 0 0 0 0 0 0 0 2 0 0 0 0 0 0 3 28 76 122 46 107 97 0 66 234 702 661 849 790 821 1136 1219
0 0 0 0 0 0 0 0 0 0 4 16 22 30 34 42 54 0 0 0 0 0 0 0 0 0 0 10 0 0 13 1 1 0 0 0 0 10 36 133 327 37 166 16 85 11 143 419 376 377 458 459 673 1138
0 0 0 0 0 0 0 0 0 0 0 0 1 15 15 12 2 0 0 0 0 0 0 0 0 0 18 18 40 5 0 4 0 0 0 0 0 0 5 81 28 19 48 0 26 42 231 191 126 178 284 331 480 570
0 0 0 0 0 0 0 0 0 0 0 0 0 0 0 0 0 0 0 0 6 2 0 0 0 2 12 41 81 35 32 16 0 0 0 0 0 0 46 23 12 44 250 65 39 25 45 60 8 53 110 146 175 206
0 0 0 0 0 0 0 0 0 0 0 0 0 0 0 0 0 0 0 0 0 0 0 0 0 0 32 32 28 19 0 14 0 0 0 0 0 0 32 16 179 125 105 69 51 47 38 75 32 17 2 0 1 12
0 0 0 0 0 0 0 0 0 0 0 0 0 0 0 0 0 0 0 0 0 0 0 0 0 0 0 5 9 37 0 0 0 0 0 0 7 7 19 0 0 0 31 28 36 50 36 27 6 0 0 0 0 0
0 0 0 0 0 0 0 0 0 0 0 0 0 0 0 0 0 0 0 0 0 0 0 0 0 0 0 0 0 0 0 0 2 0 0 0 0 0 0 0 0 0 0 8 26 16 16 0 0 0 0 0 0 0
0 0 0 0 0 0 0 0 0 0 0 0 0 0 0 0 2 0 0 0 0 0 3 0 0 0 0 0 0 0 0 0 0 0 0 0 0 0 0 0 0 0 0 0 0 1 2 0 0 0 0 0 0 0
0 0 0 0 0 0 0 0 0 0 0 0 0 0 0 0 0 0 0 3 9 2 1 0 0 0 0 0 0 0 0 0 0 0 0 0 0 0 0 0 0 0 0 0 0 0 0 0 0 0 0 0 12 15
0 0 0 0 0 0 0 0 0 0 0 0 0 0 0 0 0 0 0 5 1 0 0 0 0 0 0 0 0 0 0 0 0 0 0 0 0 0 0 3 0 0 0 0 0 0 0 0 0 32 0 33 4 5
0 0 0 0 0 0 0 0 0 0 0 0 0 0 1 0 4 0 0 0 0 0 0 0 0 0 0 0 0 0 0 0 0 0 0 0 0 0 0 44 0 8 44 29 48 63 64 57 61 46 47 37 39 36
0 0 0 0 0 0 0 0 0 0 0 1 0 0 3 24 52 37 14 0 0 0 0 0 0 0 0 0 0 0 0 0 0 0 0 0 0 37 40 65 57 49 56 62 64 65 61 15 33 46 41 30 91 47
0 0 0 0 0 0 0 0 3 10 25 6 0 1 8 1 3 3 0 0 0 0 0 0 0 0 0 0 0 0 0 0 0 0 0 0 0 0 40 39 19 23 23 5 11 25 7 9 11 4 20 20 13 8
0 0 0 0 0 0 0 0 1 23 6 19 56 42 27 33 9 0 0 0 0 0 0 0 0 0 0 0 0 0 0 0 0 0 16 44 28 36 32 23 4 2 9 8 3 3 1 1 2 0 1 10 13 8
0 0 0 0 0 0 0 0 0 3 34 33 18 19 15 0 0 0 0 0 0 0 0 0 0 0 0 0 0 5 0 0 26 18 24 49 78 81 86 9 8 11 8 4 0 4 13 7 3 0 0 10 9 18
0 0 0 0 0 0 0 0 0 6 19 20 20 0 0 0 0 0 0 0 0 0 0 0 0 0 0 16 8 0 0 10 0 29 40 32 23 16 16 8 0 0 0 0 0 0 0 0 0 0 1 0 0 0
0 0 0 0 0 0 0 0 0 0 3 11 8 0 0 0 0 0 0 0 0 0 0 0 0 0 6 23 6 1 4 11 14 1 0 0 3 10 10 1 0 0 0 0 0 0 0 0 0 0 0 0 0 0
0 0 0 0 0 0 0 0 0 1 9 8 8 0 1 0 0 0 0 0 0 4 0 0 0 1 6 5 0 0 0 0 0 4 0 0 1 3 2 0 0 0 0 0 0 0 0 0 0 0 0 0 0 0
0 0 0 2 0 0 0 0 2 0 8 13 20 15 12 9 0 0 0 0 4 13 38 23 4 0 0 0 0 0 0 0 0 0 0 0 1 0 1 2 5 1 0 0 0 0 0 0 0 0 0 0 0 0
0 0 6 14 1 1 21 40 49 49 32 16 9 13 19 0 0 0 0 0 0 0 0 0 0 1 0 0 0 0 0 0 0 0 0 0 0 0 0 3 6 8 5 1 2 1 1 0 0 0 0 0 0 0
0 0 3 41 161 85 200 153 138 148 103 75 26 1 0 11 30 0 0 0 0 0 0 0 0 0 0 0 0 0 0 0 0 0 0 0 0 0 0 0 0 0 0 0 0 0 0 0 0 0 0 0 0 0
0 0 5 69 40 0 175 129 77 75 55 85 47 18 0 0 27 18 0 0 0 7 6 13 10 9 0 0 0 0 0 0 0 0 0 0 0 0 0 0 0 0 0 0 0 0 0 0 0 0 0 0 0 0
64 43 75 30 0 0 0 66 117 132 141 130 67 22 0 7 0 0 0 2 6 27 22 20 11 0 0 0 0 0 0 0 0 0 0 0 0 0 0 0 0 0 0 0 0 0 0 0 0 0 0 0 0 0
0 0 0 19 12 3 24 78 78 12 0 8 67 37 0 11 0 0 0 25 44 36 54 49 12 0 0 0 0 0 0 0 0 0 0 0 0 0 0 0 0 0 0 0 0 0 0 0 0 0 0 0 0 0
0 0 21 206 82 86 65 0 0 0 0 0 0 0 0 0 0 0 15 54 89 103 35 0 0 0 0 0 0 0 0 0 0 0 0 0 0 0 0 0 0 0 0 0 0 0 0 0 0 0 0 0 0 0
8 9 123 50 258 105 11 0 0 0 0 0 0 0 0 0 0 0 9 41 0 0 0 0 0 0 0 0 0 0 0 0 0 0 0 0 0 0 0 0 0 0 0 0 0 0 0 0 0 0 0 0 0 0
243 210 57 204 48 15 42 12 0 0 0 0 0 0 0 0 0 13 2 0 0 0 0 0 0 0 0 0 0 0 0 0 0 0 0 0 0 0 0 0 0 0 0 0 0 0 0 0 0 0 0 0 0 0
244 145 260 122 45 40 77 32 27 20 0 0 0 0 0 0 0 8 0 0 0 0 0 0 0 0 0 0 0 0 0 0 0 0 0 0 0 0 0 0 0 0 0 0 0 0 0 0 0 0 0 0 0 0
7 12 8 213 98 64 70 80 70 38 5 2 2 0 0 0 2 12 0 0 0 0 0 0 0 0 0 0 0 0 0 0 0 0 0 0 0 0 0 0 0 0 0 0 0 0 0 0 0 0 0 0 0 0
2 23 7 127 213 197 178 143 86 56 23 18 9 0 0 0 0 0 0 0 0 0 0 0 0 0 0 0 0 0 0 0 0 0 0 0 0 0 0 0 0 0 0 0 0 0 0 0 0 0 0 0 0 0

GFSWCAN_con_mucape_030.txt.gz
CAPE
0 0 0 0 0 0 0 0 0 0 0 1 8 0 0 56 72 33 0 0 0 0 0 0 0 0 0 0 0 0 0 1 6 2 0 1 2 6 0 0 0 0 0 0 0 0 0 0 0 4 0 0 0 0
0 0 0 0 0 0 0 0 0 0 1 4 5 0 0 0 58 46 0 0 0 0 0 0 0 0 0 0 0 0 10 0 4 0 0 3 0 0 0 0 0 0 0 0 0 0 0 0 0 6 7 13 24 3
0 0 0 0 0 0 0 0 1 0 1 7 0 0 2 0 0 66 0 0 0 0 0 0 0 0 0 0 0 0 0 0 2 0 0 0 0 0 0 0 7 37 14 19 15 0 0 52 8 54 70 97 295 268
0 0 0 0 0 0 0 1 1 1 3 3 0 0 3 0 0 0 0 0 0 0 0 0 0 0 0 0 0 0 0 0 0 0 0 0 0 0 0 0 0 0 1 0 7 0 118 57 10 78 215 351 606 795
0 0 0 0 0 0 1 2 3 3 6 0 0 0 0 0 0 0 0 0 0 0 0 0 0 0 0 0 0 0 0 0 0 0 0 0 0 0 0 0 0 0 0 0 0 0 99 76 66 186 415 670 902 1221
0 0 0 0 0 0 1 1 4 3 3 0 0 0 0 0 0 0 0 0 0 0 0 0 0 5 0 0 1 3 1 0 0 0 0 0 0 0 0 0 0 1 0 3 7 88 172 88 142 332 559 682 744 843
0 0 0 0 1 0 2 3 3 2 0 0 0 0 0 0 0 0 0 0 0 0 0 0 0 0 16 13 12 5 4 3 0 0 0 0 0 0 0 0 0 0 0 5 97 180 326 179 181 516 403 450 383 473
0 0 0 0 0 0 1 4 3 0 0 0 0 0 0 0 0 0 0 0 0 0 0 0 0 0 0 0 0 0 0 0 0 0 0 0 0 0 0 0 0 0 0 3 53 269 172 195 149 296 343 317 215 155
0 0 0 0 0 0 0 0 0 0 0 0 0 0 0 0 0 0 1 0 0 0 0 0 0 0 0 0 0 0 0 0 0 0 0 0 0 0 0 10 10 0 0 0 176 169 243 191 186 87 50 265 57 33
0 0 0 0 0 0 0 0 0 0 0 0 0 0 0 0 0 0 1 0 0 0 0 0 0 0 0 0 0 0 0 0 0 0 0 0 0 0 0 3 13 48 50 34 70 217 244 154 45 27 38 0 0 3
0 0 0 0 0 0 0 0 0 0 0 0 0 0 0 0 0 0 0 0 0 3 0 0 0 0 0 0 0 0 0 0 0 0 0 0 0 0 0 0 5 13 52 10 8 7 37 8 0 0 0 1 1 6
0 0 0 0 0 0 0 0 0 0 0 0 0 0 0 0 0 0 0 0 0 0 0 0 0 0 0 0 0 0 0 0 0 0 0 0 0 0 0 0 0 2 5 1 0 0 34 29 1 0 0 2 0 48
0 0 0 0 0 0 0 0 0 0 0 0 0 0 0 0 0 0 0 0 0 0 0 0 0 0 0 0 0 0 0 0 0 0 0 0 0 0 0 0 0 0 0 0 0 3 7 32 34 8 10 7 20 28
0 0 0 0 0 0 0 0 0 0 0 0 0 0 0 0 0 0 0 0 0 0 0 0 0 0 0 0 0 0 0 0 0 0 0 0 0 0 0 0 0 0 0 0 0 0 1 0 6 0 7 0 4 10
0 0 0 0 0 0 0 0 0 0 0 0 0 0 0 1 0 0 0 0 0 0 0 0 0 0 0 0 0 0 0 1 0 0 0 0 1 1 3 2 4 11 11 0 0 0 0 0 30 13 33 42 27 9
0 0 0 0 0 0 0 0 0 0 0 0 0 0 0 0 0 0 0 0 0 0 0 0 0 0 0 0 0 0 0 0 0 0 0 0 0 2 9 6 0 0 0 4 17 9 14 14 6 9 3 2 16 7
0 0 0 0 0 0 0 0 0 0 0 6 0 0 0 0 0 0 0 0 0 0 3 0 0 0 0 0 0 0 0 14 19 10 7 3 0 0 0 0 0 0 0 0 3 8 3 0 13 11 1 7 10 8
0 0 0 0 0 0 0 0 0 0 0 0 0 0 0 0 0 0 0 0 0 0 0 0 0 0 0 0 0 0 2 4 11 32 31 12 0 2 0 0 0 0 0 0 0 0 0 0 0 0 0 0 0 0
0 0 0 0 0 0 0 0 0 0 0 0 0 0 0 0 0 0 0 0 0 0 0 0 0 0 0 0 0 0 2 2 7 13 17 22 12 3 0 0 0 0 0 0 0 0 0 0 0 0 0 0 0 0
0 0 0 0 0 0 0 0 0 0 0 0 0 0 0 0 0 0 0 0 0 0 0 0 0 0 0 0 0 0 0 0 2 5 1 0 0 0 0 0 0 0 0 0 0 0 0 0 0 0 0 0 0 0
0 0 0 0 0 0 0 0 0 0 0 0 0 0 8 0 0 0 0 0 0 0 0 0 0 0 1 0 0 0 0 0 0 0 0 0 0 0 0 0 2 3 1 0 0 0 0 0 0 0 0 0 0 0
0 0 0 0 0 0 0 0 0 0 1 5 12 8 9 3 0 0 0 0 5 0 0 0 0 0 0 0 0 0 0 0 0 0 0 0 0 0 0 0 0 0 0 0 0 0 0 0 0 0 0 0 0 0
0 0 0 0 0 0 0 8 2 7 4 3 0 0 3 22 10 0 0 6 13 0 0 0 0 0 0 0 0 0 0 0 0 0 0 0 0 0 0 0 0 0 0 0 0 0 0 0 0 0 0 3 0 0
0 0 0 0 0 2 0 46 30 39 6 0 0 0 0 11 10 0 0 0 11 12 2 0 0 0 0 0 0 0 0 0 0 0 0 0 0 0 0 0 0 0 0 0 0 0 0 0 0 0 0 0 0 0
0 0 18 0 0 0 0 0 21 3 2 1 0 0 0 11 2 0 0 0 8 19 11 10 10 7 0 0 0 0 0 0 0 0 0 0 0 0 0 0 0 0 0 0 0 0 0 0 0 0 0 0 0 0
0 0 2 0 0 0 0 0 1 0 0 0 0 0 0 0 0 0 0 0 0 28 17 20 5 9 0 0 0 0 0 0 0 0 0 0 0 0 0 0 0 0 0 0 0 0 0 0 0 0 0 0 0 0
0 0 0 0 1 0 0 0 0 0 0 0 0 0 0 0 0 0 0 0 3 26 17 2 0 0 0 0 0 0 0 0 0 0 0 0 0 0 0 0 0 0 0 0 0 0 0 0 0 0 0 0 0 0
0 0 0 1 8 20 0 0 0 0 0 0 0 0 0 0 0 0 0 0 0 0 1 0 0 0 0 0 0 0 0 0 0 0 0 0 0 0 0 0 0 0 0 0 0 0 0 0 0 0 0 0 0 0
7 1 0 0 1 63 49 4 2 1 0 0 0 0 0 0 0 0 0 0 2 2 6 0 0 0 0 0 0 0 0 0 0 0 0 0 0 0 0 0 0 0 0 0 0 0 0 0 0 0 0 0 0 0
67 17 15 17 21 37 50 45 19 26 30 15 11 7 0 0 0 0 0 0 0 4 12 0 0 0 0 0 0 0 0 0 0 0 0 0 0 0 0 0 0 0 0 0 0 0 0 0 0 0 0 0 0 0
129 38 35 48 95 138 120 82 77 37 28 38 34 26 31 20 11 0 0 0 0 7 10 0 0 0 0 0 0 0 0 0 0 0 0 0 0 0 0 0 0 0 0 0 0 0 0 0 0 0 0 0 0 0
36 82 47 72 102 105 89 81 60 50 74 81 60 45 55 28 35 16 0 0 0 1 0 0 0 0 0 0 0 0 0 0 0 0 0 0 0 0 0 0 0 0 0 0 0 0 0 0 0 0 0 0 0 0
8 0 1 6 24 27 5 4 0 1 26 32 47 61 52 26 40 35 1 0 0 0 0 0 0 0 0 0 0 0 0 0 0 0 0 0 0 0 0 0 0 0 0 0 0 0 0 0 0 0 0 0 0 0

GFSWCAN_con_mucape_033.txt.gz
CAPE
0 0 0 0 0 0 1 1 1 0 0 0 2 4 0 1 9 0 0 0 0 0 0 1 0 0 0 0 0 0 2 20 27 13 24 19 2 5 0 0 0 0 0 0 0 0 0 0 0 0 17 1 0 0
0 0 0 0 0 0 1 1 1 1 4 4 6 12 0 4 5 0 0 0 0 0 0 0 0 0 0 0 0 0 4 8 6 58 12 13 56 39 7 0 0 0 0 0 0 0 0 0 0 0 2 0 0 10
0 0 0 0 0 0 0 2 4 4 7 9 10 1 0 2 0 47 0 0 0 0 0 0 0 0 0 0 0 0 0 0 10 25 0 0 0 0 0 0 0 4 42 17 0 0 0 0 0 0 62 56 64 39
0 0 0 0 0 0 3 4 5 5 8 13 7 0 0 0 0 0 0 0 0 0 0 0 0 0 0 0 0 0 0 0 0 0 0 0 0 0 0 0 0 0 26 0 0 0 0 0 0 0 0 0 3 42
0 0 0 0 0 0 5 7 7 7 10 11 0 0 0 0 0 0 0 0 0 0 0 0 0 0 0 0 0 0 0 0 0 0 0 0 0 0 0 0 0 0 0 0 0 0 56 0 0 40 130 22 29 30
0 0 0 0 0 0 0 0 0 6 10 0 0 0 0 0 0 1 0 0 1 0 0 0 0 0 1 4 2 0 0 0 0 0 0 0 0 0 0 0 0 1 0 0 0 0 0 0 0 11 103 106 55 381
0 0 0 0 0 0 0 0 0 7 0 0 0 0 0 0 0 0 0 0 0 0 0 0 0 0 0 9 10 1 11 0 0 0 0 0 0 0 0 0 1 0 0 0 0 0 8 0 0 169 119 99 63 515
0 0 0 0 0 0 0 0 7 0 0 0 0 0 0 0 0 0 0 0 0 0 0 0 0 0 0 0 0 0 0 0 0 0 0 0 0 0 10 16 9 8 1 0 0 0 1 3 330 268 76 107 188 450
0 0 0 0 0 0 0 0 0 0 0 0 0 0 0 0 0 0 1 0 0 0 0 0 0 0 0 0 0 0 0 0 0 0 0 0 0 1 7 17 2 25 0 0 0 0 0 36 103 61 82 153 191 331
0 0 0 0 0 0 0 0 0 0 0 0 0 0 0 0 0 0 0 0 0 5 5 0 0 0 0 0 0 0 0 0 0 0 0 0 0 0 2 31 35 1 9 3 112 109 104 60 2 31 0 13 76 136
0 0 0 0 0 0 0 0 0 0 0 0 0 0 0 0 0 0 0 0 0 0 0 5 0 0 0 0 0 0 0 0 0 0 0 0 0 0 0 0 0 100 96 66 94 47 0 0 16 52 125 1 76 150
0 0 0 0 0 0 0 0 0 0 0 0 0 0 0 0 0 0 0 0 0 0 0 0 0 0 0 0 0 0 0 0 0 0 0 0 0 0 0 0 0 0 0 1 19 0 0 2 0 13 11 11 30 6
0 0 0 0 0 0 0 0 0 0 0 0 0 0 0 0 0 0 0 0 0 0 0 0 0 0 0 0 0 0 0 0 0 0 0 0 0 0 0 0 0 0 0 0 0 0 7 0 0 0 0 2 0 0
0 0 0 0 0 0 0 0 0 0 0 0 0 0 0 0 0 0 0 0 0 0 0 0 0 0 0 0 0 0 0 0 0 0 0 0 0 0 0 0 0 0 0 0 0 0 0 0 0 0 2 0 0 0
0 0 0 0 0 0 0 0 0 0 0 0 0 0 0 0 0 0 0 0 0 1 0 0 0 0 0 0 0 0 0 0 0 0 0 0 28 0 0 0 0 1 0 0 0 0 0 0 0 0 17 14 12 12
0 0 0 0 0 0 0 0 0 0 0 0 0 0 0 0 0 0 0 4 1 2 0 2 0 0 0 0 0 0 0 0 0 1 20 16 20 1 0 0 0 0 1 0 1 0 0 3 22 30 11 9 18 36
0 0 0 0 0 0 0 0 0 0 0 0 0 0 0 0 0 0 0 0 0 0 0 0 0 0 0 0 0 0 0 0 11 26 22 28 14 0 0 0 0 0 0 0 0 0 0 0 0 0 0 0 0 0
0 0 0 0 0 0 0 0 0 0 0 0 0 0 0 0 0 0 0 0 0 0 0 0 0 0 0 0 0 0 0 0 0 0 13 21 14 2 0 0 0 0 0 0 0 0 0 0 0 0 0 0 0 0
0 0 0 0 0 0 0 0 0 0 0 0 0 0 0 0 0 0 0 0 0 0 0 0 0 0 0 0 0 0 0 0 0 0 0 0 0 0 0 0 0 0 0 0 0 0 0 0 0 0 0 0 0 0
0 0 0 0 0 0 0 0 0 0 0 0 0 3 8 0 0 0 0 0 0 0 0 0 0 0 0 0 0 0 0 0 0 0 0 0 0 0 0 0 0 0 0 0 0 0 0 0 0 0 0 0 0 0
0 0 0 0 0 0 0 0 0 0 0 2 2 5 18 8 1 0 0 0 0 0 0 0 0 0 0 0 0 0 0 0 0 0 0 2 2 1 1 1 0 0 0 0 0 0 0 0 0 0 0 0 0 0
0 0 0 0 0 0 0 0 0 0 0 2 4 5 25 21 7 0 0 0 0 46 48 6 0 0 1 0 0 0 0 0 0 0 0 0 2 0 0 0 0 0 0 0 0 0 0 0 0 0 0 0 0 0
0 0 0 0 0 0 8 30 8 7 14 0 0 1 19 39 11 0 0 14 37 13 1 3 7 6 5 1 0 0 0 0 0 0 0 0 0 0 0 0 0 0 0 0 0 0 0 0 0 0 7 6 0 0
0 0 0 0 0 0 0 8 4 11 11 9 0 0 0 30 21 0 0 0 26 23 13 12 10 7 5 0 0 0 0 0 0 0 0 0 0 0 0 0 0 0 0 0 0 0 0 0 0 0 0 0 0 0
0 0 0 0 0 0 0 0 0 0 0 0 0 0 0 0 1 0 0 0 21 54 55 10 6 0 5 0 0 0 0 0 0 0 0 0 0 0 0 0 0 0 0 0 0 0 0 0 0 0 0 0 0 0
0 0 0 0 0 0 0 0 0 0 0 1 0 0 0 0 0 0 0 0 8 36 56 60 5 0 0 0 0 0 0 0 0 0 0 0 0 0 0 0 0 0 0 0 0 0 0 0 0 0 0 0 0 0
0 0 0 0 0 0 0 0 0 0 0 0 0 0 0 0 0 0 0 0 4 18 15 0 0 0 0 0 0 0 0 0 0 0 0 0 0 0 0 0 0 0 0 0 0 0 0 0 0 0 0 0 0 0
0 0 9 19 60 0 1 0 0 0 0 0 0 0 0 0 0 0 0 0 0 0 0 1 0 0 0 0 0 0 0 0 0 0 0 0 0 0 0 0 0 0 0 0 0 0 0 0 0 0 0 0 0 0
6 1 0 11 19 73 184 13 14 7 4 1 2 8 7 6 1 0 0 0 0 0 0 3 1 0 0 0 0 0 0 0 0 0 0 0 0 0 0 0 0 0 0 0 0 0 0 0 0 0 0 0 0 0
82 29 17 17 36 48 119 30 45 50 34 22 17 17 16 39 42 35 29 12 1 0 0 6 7 0 0 0 0 0 0 0 0 0 0 0 0 0 0 0 0 0 0 0 0 0 0 0 0 0 0 0 0 0
29 51 46 36 114 79 81 122 87 76 65 73 70 70 64 47 45 57 43 45 24 2 0 5 1 0 0 0 0 0 0 0 0 0 0 0 0 0 0 0 0 0 0 0 0 0 0 0 0 0 0 0 0 0
62 114 153 130 107 29 10 22 32 6 1 6 19 38 51 44 65 47 47 57 36 7 0 0 0 0 0 0 0 0 0 0 0 0 0 0 0 0 0 0 0 0 0 0 0 0 0 0 0 0 0 0 0 0
0 0 0 3 9 1 0 1 0 0 0 0 29 64 62 19 40 46 52 43 20 0 0 0 0 0 0 0 0 0 0 0 0 0 0 0 0 0 0 0 0 0 0 0 0 0 0 0 0 0 0 0 0 0